• MPC Preparation (Info)

  • MPEC 2016-O15 : 2014 CN23

    The following Minor Planet Electronic Circular may be linked-to from your own Web pages, but must not otherwise be redistributed electronically.

    A form allowing access to any MPEC is at the bottom of this page.


    Read MPEC 2016-O14 Read MPEC 2016-O16


    M.P.E.C. 2016-O15                                Issued 2016 July 16, 03:03 UT
    
         The Minor Planet Electronic Circulars contain information on unusual
             minor planets and routine data on comets.  They are published
        on behalf of Division F of the International Astronomical Union by the
              Minor Planet Center, Smithsonian Astrophysical Observatory,
                              Cambridge, MA 02138, U.S.A.
    
                 Prepared using the Tamkin Foundation Computer Network
    
                                  MPC@CFA.HARVARD.EDU
                URL https://www.minorplanetcenter.net/    ISSN 1523-6714
    
                                       2014 CN23
    
    Observations:
         K14C23N  C2013 04 12.48911 14 01 15.028-21 35 53.53         22.0 wLEO015F51
         K14C23N  C2013 04 12.50299 14 01 14.886-21 35 52.96         21.7 wLEO015F51
         K14C23N  C2013 04 12.51683 14 01 14.739-21 35 52.66         21.4 wLEO015F51
         K14C23N  C2013 05 05.38160 13 57 26.331-21 19 18.66         21.7 wLEO015F51
         K14C23N  C2013 05 05.39640 13 57 26.190-21 19 18.02         21.9 wLEO015F51
         K14C23N  C2013 05 05.41118 13 57 26.038-21 19 17.13         21.8 wLEO015F51
         K14C23N  C2013 05 05.42596 13 57 25.886-21 19 16.44         21.8 wLEO015F51
         K14C23N* C2014 02 10.59620 14 20 27.972-23 25 45.14         22.1 wLEO015F51
         K14C23N  C2014 02 10.60539 14 20 27.970-23 25 45.54         21.9 wLEO015F51
         K14C23N  C2014 02 10.61464 14 20 27.956-23 25 45.78         22.0 wLEO015F51
         K14C23N  C2014 02 10.62387 14 20 27.944-23 25 46.10         22.1 wLEO015F51
         K14C23N  C2014 04 05.47389 14 15 21.744-23 27 52.20         21.8 wLEO015F51
         K14C23N  C2014 04 05.48576 14 15 21.637-23 27 51.73         21.9 wLEO015F51
         K14C23N  C2014 04 05.49766 14 15 21.494-23 27 51.93         22.0 wLEO015F51
         K14C23N  C2014 04 05.50957 14 15 21.385-23 27 51.34         21.8 wLEO015F51
         K14C23N  C2014 04 29.40225 14 11 20.627-23 13 38.71         21.8 wLEO015F51
         K14C23N  C2014 04 29.41284 14 11 20.505-23 13 38.17         21.7 wLEO015F51
         K14C23N  C2014 04 29.42342 14 11 20.403-23 13 37.72         22.1 wLEO015F51
         K14C23N  C2014 04 29.43402 14 11 20.293-23 13 37.29         21.8 wLEO015F51
         K14C23N  C2014 05 07.40765 14 09 59.001-23 07 33.99         21.3 rLEO015F51
         K14C23N  C2014 05 07.41820 14 09 58.887-23 07 33.48         21.6 rLEO015F51
         K14C23N  C2014 05 07.42874 14 09 58.779-23 07 32.98         21.7 rLEO015F51
         K14C23N  C2014 05 07.43928 14 09 58.679-23 07 32.37         21.8 rLEO015F51
         K14C23N  C2014 06 04.30814 14 05 50.264-22 44 41.54         21.7 iLEO015F51
         K14C23N  C2014 06 04.31977 14 05 50.185-22 44 41.42         21.6 iLEO015F51
         K14C23N  C2014 06 04.33140 14 05 50.080-22 44 40.67         21.5 iLEO015F51
         K14C23N  C2014 06 04.34304 14 05 50.013-22 44 39.92         21.6 iLEO015F51
         K14C23N  C2014 06 20.28949 14 04 12.515-22 32 38.50         22.1 wLEO015F51
         K14C23N  C2014 06 20.30140 14 04 12.438-22 32 37.38         21.8 wLEO015F51
         K14C23N  C2014 06 20.32534 14 04 12.334-22 32 36.21         21.8 wLEO015F51
         K14C23N  C2014 06 30.26891 14 03 33.523-22 26 15.93         22.1 wLEO015F51
         K14C23N  C2014 06 30.28081 14 03 33.466-22 26 15.35         22.2 wLEO015F51
         K14C23N  C2014 06 30.29269 14 03 33.449-22 26 15.36         22.4 wLEO015F51
         K14C23N  C2014 06 30.30456 14 03 33.407-22 26 14.63         22.2 wLEO015F51
         K14C23N  C2015 01 25.63535 14 33 11.669-24 54 08.85         22.0 wLEO015F51
         K14C23N  C2015 01 25.64085 14 33 11.700-24 54 09.21         21.9 wLEO015F51
         K14C23N  C2015 01 25.64633 14 33 11.717-24 54 09.58         22.2 wLEO015F51
         K14C23N  C2015 01 25.65183 14 33 11.725-24 54 09.74         22.2 wLEO015F51
         K14C23N  C2015 05 18.38076 14 21 41.041-24 47 39.63         21.6 wLEO015F51
         K14C23N  C2015 05 18.39135 14 21 40.928-24 47 39.10         21.7 wLEO015F51
         K14C23N  C2015 05 18.40192 14 21 40.826-24 47 38.53         21.7 wLEO015F51
         K14C23N  C2015 05 18.41254 14 21 40.710-24 47 37.84         21.6 wLEO015F51
         K14C23N  C2015 06 08.31737 14 18 37.208-24 30 23.40         21.8 wLEO015F51
         K14C23N  C2015 06 08.32798 14 18 37.128-24 30 22.74         21.8 wLEO015F51
         K14C23N  C2015 06 08.33857 14 18 37.034-24 30 22.13         21.9 wLEO015F51
         K14C23N  C2015 06 19.28392 14 17 24.512-24 21 46.18         21.9 wLEO015F51
         K14C23N  C2015 06 19.29581 14 17 24.449-24 21 45.96         22.1 wLEO015F51
         K14C23N  C2015 06 19.30772 14 17 24.377-24 21 45.39         21.9 wLEO015F51
         K14C23N  C2015 06 19.31961 14 17 24.311-24 21 44.84         22.1 wLEO015F51
    
    Observer details:
    F51 Pan-STARRS 1, Haleakala.  Observers B. Gibson, T. Goggia, N. Primak,
        A. Schultz, M. Willman.  Measurers K. Chambers, S. Chastel, Y.-T. Chen,
        L. Denneau, H. Flewelling, M. Holman, M. Huber, R. Jedicke, M. Lackner,
        E. Lilly, H.-W. Lin, E. Magnier, M. Micheli, M. Payne, P. Veres,
        R. Wainscoat, C. Waters, R. Weryk.  1.8-m Ritchey-Chretien + CCD.
    
    Orbital elements:
    2014 CN23
    Epoch 2016 July 31.0 TT = JDT 2457600.5                 MPC
    M 240.87398              (2000.0)            P               Q
    n   0.01487883     Peri.   11.47834     +0.98094154     -0.19429936
    a  16.3715683      Node   359.71692     +0.15331540     +0.77780927
    e   0.3041510      Incl.   14.11527     +0.11936533     +0.59771272
    P  66.24           H    8.6           G   0.15           U   2
    Residuals in seconds of arc
    130412 F51  0.1-  0.1+    140429 F51  0.1+  0.1+    150125 F51  0.2-  0.2+
    130412 F51  0.1-  0.1+    140429 F51  0.1+  0.0     150125 F51  0.0   0.1+
    130412 F51  0.2-  0.1-    140507 F51  0.1+  0.0     150125 F51  0.0   0.1+
    130505 F51  0.1+  0.0     140507 F51  0.0   0.0     150125 F51  0.2-  0.2+
    130505 F51  0.2+  0.1-    140507 F51  0.0   0.0     150518 F51  0.1+  0.1-
    130505 F51  0.1+  0.1+    140507 F51  0.1+  0.1+    150518 F51  0.0   0.1-
    130505 F51  0.0   0.0     140604 F51  0.0   0.1+    150518 F51  0.1+  0.1-
    140210 F51  0.1+  0.1-    140604 F51  0.2+  0.3-    150518 F51  0.0   0.1+
    140210 F51  0.2+  0.2-    140604 F51  0.1-  0.1-    150608 F51  0.1+  0.1-
    140210 F51  0.1+  0.1-    140604 F51  0.2+  0.1+    150608 F51  0.1+  0.0
    140210 F51  0.1+  0.2-    140620 F51  0.1+  0.4-    150608 F51  0.0   0.1+
    140405 F51  0.0   0.1+    140620 F51  0.2-  0.2+    150619 F51  0.1-  0.2+
    140405 F51  0.1+  0.2+    140620 F51  0.0   0.4+    150619 F51  0.0   0.2-
    140405 F51  0.3-  0.3-    140630 F51  0.1-  0.1+    150619 F51  0.0   0.1-
    140405 F51  0.2-  0.0     140630 F51  0.4-  0.2+    150619 F51  0.1+  0.1-
    140429 F51  0.1+  0.0     140630 F51  0.1-  0.2-
    140429 F51  0.1-  0.1+    140630 F51  0.2-  0.1+
    
    Ephemeris:
    2014 CN23                a,e,i = 16.37, 0.30, 14                 q = 11.392
    Date    TT    R. A. (2000) Decl.     Delta      r     Elong.  Phase     V
    2016 06 16    14 31 33.9 -26 10 57  18.9801 19.7433   137.7     2.0    21.7
    ...
    2016 07 01    14 30 09.9 -25 59 37  19.1523 19.7315   123.5     2.5    21.8
    ...
    2016 07 09    14 29 42.5 -25 54 22  19.2596 19.7251   115.9     2.7    21.8
    ...
    2016 07 15    14 29 30.4 -25 50 55  19.3455 19.7204   110.2     2.8    21.8
    2016 07 16    14 29 29.2 -25 50 23  19.3602 19.7196   109.3     2.8    21.8
    2016 07 17    14 29 28.1 -25 49 52  19.3750 19.7188   108.4     2.8    21.8
    ...
    2016 07 23    14 29 26.0 -25 47 03  19.4653 19.7140   102.7     2.9    21.8
    ...
    2016 07 31    14 29 34.9 -25 44 07  19.5892 19.7076    95.2     2.9    21.8
    ...
    2016 08 15    14 30 27.5 -25 41 22  19.8242 19.6957    81.3     2.9    21.9
    
    A. U. Tomatic                (C) Copyright 2016 MPC           M.P.E.C. 2016-O15
    

    Read MPEC 2016-O14 Read MPEC 2016-O16


    MPEC number:

    Enter an MPEC number in one of the following forms:

    • 1997-B01 (the full form)
    • J97B01 (the packed version of the full form)
    • B01 (the abbreviated form)